TimeEDT,TemperatureF,Dew PointF,Humidity,Sea Level PressureIn,VisibilityMPH,Wind Direction,Wind SpeedMPH,Gust SpeedMPH,PrecipitationIn,Events,Conditions,WindDirDegrees,DateUTC
12:15 AM,46.8,43.7,89,30.19,10.0,Calm,Calm,-,N/A,,Clear,0,2013-05-26 04:15:00
12:35 AM,46.8,43.7,89,30.20,10.0,Calm,Calm,-,N/A,,Clear,0,2013-05-26 04:35:00
12:55 AM,45.1,42.3,90,30.19,10.0,Calm,Calm,-,N/A,,Clear,0,2013-05-26 04:55:00
1:15 AM,45.1,42.4,90,30.19,10.0,Calm,Calm,-,N/A,,Clear,0,2013-05-26 05:15:00
1:35 AM,45.1,42.6,91,30.19,10.0,Calm,Calm,-,N/A,,Clear,0,2013-05-26 05:35:00
1:55 AM,45.1,42.8,91,30.19,10.0,Calm,Calm,-,N/A,,Clear,0,2013-05-26 05:55:00
2:15 AM,45.1,42.4,90,30.19,10.0,Calm,Calm,-,N/A,,Clear,0,2013-05-26 06:15:00
2:35 AM,45.1,42.4,90,30.19,10.0,Calm,Calm,-,N/A,,Clear,0,2013-05-26 06:35:00
2:55 AM,45.1,42.8,91,30.19,10.0,Calm,Calm,-,N/A,,Clear,0,2013-05-26 06:55:00
3:15 AM,45.1,42.8,91,30.19,10.0,Calm,Calm,-,N/A,,Clear,0,2013-05-26 07:15:00
3:35 AM,45.1,42.8,91,30.19,10.0,Calm,Calm,-,N/A,,Clear,0,2013-05-26 07:35:00
3:55 AM,45.1,42.8,91,30.19,10.0,Calm,Calm,-,N/A,,Clear,0,2013-05-26 07:55:00
4:15 AM,45.1,42.8,91,30.20,10.0,Calm,Calm,-,N/A,,Clear,0,2013-05-26 08:15:00
4:35 AM,44.8,42.4,91,30.20,10.0,Calm,Calm,-,N/A,,Clear,0,2013-05-26 08:35:00
4:55 AM,43.3,41.2,92,30.20,10.0,Calm,Calm,-,N/A,,Clear,0,2013-05-26 08:55:00
5:15 AM,42.8,40.3,91,30.20,10.0,Calm,Calm,-,N/A,,Clear,0,2013-05-26 09:15:00
5:35 AM,42.8,40.3,91,30.21,10.0,Calm,Calm,-,N/A,,Clear,0,2013-05-26 09:35:00
5:55 AM,42.8,40.5,91,30.21,10.0,Calm,Calm,-,N/A,,Clear,0,2013-05-26 09:55:00
6:15 AM,42.6,40.5,92,30.22,10.0,Calm,Calm,-,N/A,,Clear,0,2013-05-26 10:15:00
6:35 AM,44.4,42.3,92,30.23,10.0,Calm,Calm,-,N/A,,Clear,0,2013-05-26 10:35:00
6:55 AM,45.1,42.8,91,30.24,10.0,Calm,Calm,-,N/A,,Clear,0,2013-05-26 10:55:00
7:15 AM,46.2,43.5,90,30.25,10.0,Calm,Calm,-,N/A,,Clear,0,2013-05-26 11:15:00
7:35 AM,48.0,45.3,90,30.26,7.0,Calm,Calm,-,N/A,,Clear,0,2013-05-26 11:35:00
7:55 AM,52.0,47.5,85,30.25,10.0,Calm,Calm,-,N/A,,Clear,0,2013-05-26 11:55:00
8:15 AM,54.0,46.0,75,30.26,7.0,Calm,Calm,-,N/A,,Clear,0,2013-05-26 12:15:00
8:35 AM,55.0,43.9,66,30.27,10.0,Calm,Calm,-,N/A,,Clear,0,2013-05-26 12:35:00
8:55 AM,57.6,42.8,58,30.27,10.0,NNE,6.9,-,N/A,,Clear,20,2013-05-26 12:55:00
9:15 AM,58.1,38.3,48,30.26,10.0,North,8.1,-,N/A,,Clear,10,2013-05-26 13:15:00
9:35 AM,59.2,40.1,49,30.27,10.0,NNE,3.5,-,N/A,,Clear,30,2013-05-26 13:35:00
9:55 AM,60.1,39.6,47,30.27,10.0,NNE,3.5,-,N/A,,Clear,30,2013-05-26 13:55:00
10:15 AM,62.6,41.0,45,30.27,10.0,NNE,3.5,-,N/A,,Clear,20,2013-05-26 14:15:00
10:35 AM,65.3,39.9,39,30.26,10.0,North,6.9,-,N/A,,Clear,10,2013-05-26 14:35:00
10:55 AM,65.3,39.2,38,30.26,10.0,Calm,Calm,-,N/A,,Clear,0,2013-05-26 14:55:00
11:15 AM,65.3,38.1,37,30.26,10.0,North,5.8,-,N/A,,Clear,360,2013-05-26 15:15:00
11:35 AM,65.3,36.5,34,30.25,10.0,Calm,Calm,-,N/A,,Clear,0,2013-05-26 15:35:00
11:55 AM,65.3,35.8,34,30.25,10.0,NNE,4.6,-,N/A,,Clear,20,2013-05-26 15:55:00
12:35 PM,66.4,36.9,34,30.23,10.0,NNE,3.5,-,N/A,,Clear,30,2013-05-26 16:35:00
12:55 PM,70.0,39.0,32,30.23,10.0,Calm,Calm,-,N/A,,Clear,0,2013-05-26 16:55:00
1:15 PM,69.6,42.3,37,30.22,10.0,West,4.6,-,N/A,,Clear,270,2013-05-26 17:15:00
1:35 PM,70.0,40.3,34,30.22,10.0,Calm,Calm,-,N/A,,Clear,0,2013-05-26 17:35:00
1:55 PM,70.0,40.5,34,30.21,10.0,Calm,Calm,-,N/A,,Clear,0,2013-05-26 17:55:00
2:15 PM,70.0,39.2,33,30.20,10.0,WSW,3.5,-,N/A,,Clear,250,2013-05-26 18:15:00
2:35 PM,70.0,40.8,35,30.19,10.0,Calm,Calm,-,N/A,,Clear,0,2013-05-26 18:35:00
2:55 PM,70.0,40.8,35,30.19,10.0,WSW,4.6,-,N/A,,Clear,250,2013-05-26 18:55:00
3:15 PM,70.0,40.6,34,30.19,10.0,Calm,Calm,-,N/A,,Clear,0,2013-05-26 19:15:00
3:35 PM,70.0,39.2,33,30.19,10.0,Calm,Calm,-,N/A,,Clear,0,2013-05-26 19:35:00
3:55 PM,70.0,38.8,32,30.18,10.0,WNW,3.5,-,N/A,,Clear,290,2013-05-26 19:55:00
4:15 PM,70.0,38.7,32,30.19,10.0,SW,3.5,-,N/A,,Clear,220,2013-05-26 20:15:00
4:35 PM,72.5,39.9,31,30.18,10.0,NW,3.5,-,N/A,,Clear,320,2013-05-26 20:35:00
4:55 PM,70.0,37.9,31,30.18,10.0,Calm,Calm,-,N/A,,Clear,0,2013-05-26 20:55:00
5:15 PM,71.4,39.7,32,30.18,10.0,Calm,Calm,-,N/A,,Clear,0,2013-05-26 21:15:00
5:35 PM,72.1,41.0,32,30.17,10.0,Calm,Calm,-,N/A,,Clear,0,2013-05-26 21:35:00
5:55 PM,70.0,37.2,30,30.17,10.0,Calm,Calm,-,N/A,,Clear,0,2013-05-26 21:55:00
6:15 PM,70.0,39.6,33,30.18,10.0,Calm,Calm,-,N/A,,Clear,0,2013-05-26 22:15:00
6:35 PM,70.0,44.1,39,30.18,10.0,Calm,Calm,-,N/A,,Clear,0,2013-05-26 22:35:00
6:55 PM,70.0,43.9,39,30.18,10.0,Calm,Calm,-,N/A,,Clear,0,2013-05-26 22:55:00
7:15 PM,68.5,45.1,43,30.19,10.0,Calm,Calm,-,N/A,,Clear,0,2013-05-26 23:15:00
7:35 PM,65.3,46.2,50,30.19,10.0,Calm,Calm,-,N/A,,Clear,0,2013-05-26 23:35:00
7:55 PM,65.3,49.6,57,30.19,10.0,Calm,Calm,-,N/A,,Clear,0,2013-05-26 23:55:00
8:15 PM,60.1,48.9,67,30.20,10.0,Calm,Calm,-,N/A,,Clear,0,2013-05-27 00:15:00
8:35 PM,58.1,48.0,69,30.21,10.0,Calm,Calm,-,N/A,,Clear,0,2013-05-27 00:35:00
8:55 PM,55.6,49.1,79,30.21,10.0,Calm,Calm,-,N/A,,Clear,0,2013-05-27 00:55:00
9:15 PM,55.0,49.6,82,30.21,10.0,Calm,Calm,-,N/A,,Clear,0,2013-05-27 01:15:00
9:35 PM,55.0,49.5,81,30.22,10.0,Calm,Calm,-,N/A,,Clear,0,2013-05-27 01:35:00
9:55 PM,54.9,50.0,84,30.22,10.0,Calm,Calm,-,N/A,,Clear,0,2013-05-27 01:55:00
10:15 PM,54.1,50.0,86,30.23,10.0,Calm,Calm,-,N/A,,Clear,0,2013-05-27 02:15:00
10:35 PM,52.7,49.1,88,30.23,10.0,Calm,Calm,-,N/A,,Clear,0,2013-05-27 02:35:00
10:55 PM,52.7,49.3,88,30.23,10.0,Calm,Calm,-,N/A,,Clear,0,2013-05-27 02:55:00
11:15 PM,50.9,48.0,90,30.24,10.0,Calm,Calm,-,N/A,,Clear,0,2013-05-27 03:15:00
11:35 PM,50.5,47.7,90,30.24,10.0,Calm,Calm,-,N/A,,Clear,0,2013-05-27 03:35:00
11:55 PM,50.0,47.3,90,30.24,10.0,Calm,Calm,-,N/A,,Clear,0,2013-05-27 03:55:00